Theta_e
290 287 285 288 288 287 286 284 283 286 290 287 289 288 289 289 288 287 286 286 286 286 287 288 288 288 289 290 291 292 293 294 298 299 301 297 295 295 294 295 294 295 295 296
287 284 290 290 289 287 285 283 283 287 290 289 287 287 287 287 286 286 285 285 285 286 287 288 287 287 288 288 289 290 290 291 293 294 293 293 292 291 290 290 290 290 290 291
287 290 292 290 287 286 284 283 283 285 287 286 284 284 284 286 286 286 286 286 286 286 285 286 286 286 286 286 287 289 289 290 290 291 291 291 290 288 287 287 287 287 287 288
288 291 291 288 288 288 283 289 288 287 284 281 284 278 282 283 283 284 284 284 284 285 286 286 285 284 284 284 286 287 288 288 288 289 288 286 284 283 284 285 284 285 286 285
289 289 288 288 289 290 287 289 288 285 282 279 279 278 281 283 281 282 283 283 284 284 285 284 284 285 284 284 283 284 286 286 286 286 285 284 283 283 282 282 282 283 284 284
290 290 291 290 290 291 289 287 285 282 280 276 281 280 280 281 283 282 283 283 284 284 284 284 284 285 284 283 282 282 284 284 285 284 284 282 281 281 281 281 281 281 282 282
285 287 288 290 286 286 286 284 278 275 275 276 280 279 282 284 285 285 284 283 283 283 283 282 282 282 282 282 282 282 282 281 282 283 283 282 282 281 281 281 281 281 281 281
283 281 288 290 288 285 284 284 278 271 273 276 281 278 283 284 285 287 286 285 284 283 283 282 282 281 282 282 281 281 281 280 281 281 282 282 282 282 281 280 280 280 280 281
282 283 287 287 289 289 284 282 285 278 267 272 278 281 283 284 283 284 284 284 283 282 282 282 282 282 281 281 281 281 281 281 281 280 280 280 281 281 280 280 279 279 279 281
288 283 286 286 288 286 286 288 281 279 270 268 276 278 280 280 281 282 283 283 283 283 282 282 282 282 281 281 281 281 281 280 280 280 280 280 280 280 280 280 280 280 280 280
288 286 283 286 284 284 283 282 282 283 279 271 269 275 282 283 284 283 284 284 283 282 282 281 282 282 282 281 279 280 280 280 280 281 280 280 280 280 279 279 279 279 280 280
289 286 278 282 284 286 284 284 283 279 275 275 276 278 284 285 286 285 285 284 283 282 282 282 281 280 280 280 281 281 281 280 280 280 280 280 280 279 279 278 279 279 279 280
292 287 281 282 282 285 283 284 284 283 280 275 273 276 285 285 284 286 284 283 283 282 280 280 280 279 280 279 279 279 279 278 278 278 278 278 278 278 278 278 279 279 279 279
295 287 284 278 281 282 281 283 283 283 279 278 280 280 283 284 283 284 284 283 283 282 280 279 278 278 278 279 278 277 277 277 277 278 278 277 277 277 277 278 277 277 277 276
292 285 286 285 284 284 281 279 282 282 284 281 284 282 283 285 285 285 284 284 281 280 278 277 277 277 278 278 277 276 276 277 276 276 276 275 276 276 276 275 275 274 274 274
288 284 284 280 280 281 281 283 282 284 283 281 280 279 284 281 279 279 280 281 279 278 278 278 279 279 278 278 276 278 275 274 275 274 274 275 274 274 273 273 272 272 271 271
284 280 280 277 275 275 276 279 281 282 281 282 278 283 279 277 279 278 278 277 278 277 277 278 278 278 278 278 278 274 273 274 274 273 273 273 272 270 270 270 269 269 268 268
281 280 278 270 270 270 277 275 276 281 278 280 277 275 278 279 278 278 277 277 277 277 278 278 278 277 277 275 273 273 273 272 272 270 269 270 269 267 268 267 267 266 266 266
281 278 269 271 268 274 276 274 273 275 275 277 278 275 275 275 275 274 277 277 277 278 279 279 278 277 274 273 272 271 271 271 270 269 269 268 267 265 265 263 264 264 263 263
279 279 279 265 268 268 274 273 276 277 269 274 276 273 274 274 270 272 276 278 278 279 279 278 277 275 273 271 271 270 269 268 267 268 267 267 266 261 262 263 262 262 261 262
273 273 274 265 270 271 274 275 276 269 272 272 276 275 275 273 275 277 278 277 279 278 277 275 274 273 271 270 269 268 267 266 267 266 265 265 264 261 261 261 261 260 259 260
271 271 267 268 267 269 275 274 272 275 276 276 274 275 275 276 277 277 277 277 277 276 275 274 271 270 270 269 267 266 265 266 264 264 263 260 258 258 260 257 258 258 258 257
268 272 269 272 270 274 276 275 278 278 277 277 277 277 277 277 277 277 276 276 276 274 274 271 269 268 267 267 265 263 265 264 263 257 254 254 257 258 259 257 258 258 258 257
271 273 270 270 272 275 277 278 279 279 279 279 279 278 277 277 277 276 275 275 274 272 270 268 266 266 265 264 265 262 262 263 252 250 255 257 257 258 258 259 260 258 258 258
273 273 269 269 273 275 277 278 279 279 278 277 276 277 278 277 275 276 274 272 272 271 269 267 266 265 264 263 262 258 260 256 255 254 257 257 257 256 258 260 259 260 262 263
273 271 269 267 275 276 277 279 279 278 277 277 277 275 275 276 276 275 273 272 271 269 267 266 265 263 262 261 260 256 254 253 252 255 257 257 258 258 259 259 259 264 266 268
Wind_Speed
1 4 10 14 10 2 5 4 5 5 3 1 6 6 5 7 7 7 6 6 7 8 6 8 10 10 11 14 15 15 15 12 8 6 6 7 7 8 11 10 14 13 12 13
3 8 10 4 5 4 2 3 6 5 4 5 5 7 3 6 4 4 6 6 6 5 8 10 11 11 13 12 13 14 14 13 11 6 4 4 5 7 7 8 12 13 14 14
8 5 7 6 4 5 5 7 5 6 4 2 3 6 4 5 7 8 7 5 5 5 6 8 10 10 11 13 12 13 13 13 12 11 5 4 5 4 6 8 9 11 12 12
7 4 6 5 6 9 5 8 6 4 3 4 2 6 2 4 4 4 5 5 4 5 5 5 6 8 9 9 9 12 13 13 12 11 12 15 9 8 4 3 4 7 11 12
8 7 6 7 9 7 7 6 7 4 4 1 2 1 6 7 5 5 6 6 5 4 5 5 6 6 7 7 7 7 11 13 11 12 10 9 10 6 3 4 8 8 7 9
5 1 7 8 3 7 10 7 7 5 3 1 7 7 5 6 7 7 5 6 7 6 6 5 5 5 6 6 6 6 11 10 8 10 10 11 10 7 7 6 6 5 4 5
1 5 3 4 5 2 5 7 0 3 1 6 1 4 9 5 4 12 16 12 9 7 7 6 7 5 5 6 6 6 8 8 7 7 8 7 8 7 7 5 4 5 4 3
7 5 11 7 7 8 6 7 7 8 4 3 1 7 6 0 2 9 13 12 9 8 6 7 6 6 6 6 6 6 7 7 6 7 6 6 6 4 4 4 3 3 2 2
6 6 1 3 4 7 6 4 3 8 2 3 5 4 2 2 3 8 13 10 10 8 7 7 7 6 6 6 6 7 7 6 6 7 5 6 5 6 4 3 2 1 0 2
6 2 1 2 4 3 4 7 4 2 2 5 4 5 7 7 9 9 11 13 9 8 8 8 7 7 5 5 4 4 4 5 4 4 3 4 5 4 3 3 6 5 4 4
5 5 1 4 6 10 4 3 2 5 5 7 2 7 5 9 15 19 16 14 12 10 9 8 7 7 6 6 6 6 4 4 4 5 5 6 6 7 6 6 6 6 6 6
7 4 5 7 1 2 2 7 7 7 6 3 3 8 2 5 14 17 15 12 10 8 8 8 7 7 6 6 4 3 4 4 3 3 4 4 5 5 5 6 6 6 6 7
7 3 2 2 1 1 6 6 4 4 4 9 7 6 4 6 8 9 12 10 8 9 9 8 7 7 6 4 2 1 1 3 4 4 5 6 6 6 6 6 6 6 6 6
6 6 6 7 4 1 5 6 6 6 6 5 12 3 3 5 8 9 7 8 9 9 10 8 6 6 5 5 3 1 4 5 5 6 6 5 4 4 3 4 4 5 5 7
9 8 7 3 1 3 2 4 7 10 11 10 10 9 8 11 13 14 9 7 8 8 9 8 7 7 6 4 5 5 5 5 4 5 4 3 3 4 5 7 8 8 9 9
2 3 5 5 2 1 5 15 9 13 6 6 2 7 4 4 8 7 8 8 7 8 8 8 7 7 6 6 5 5 4 4 4 4 4 5 5 7 8 9 10 11 11 11
7 6 4 3 2 3 7 18 16 7 6 9 11 10 6 4 6 9 9 8 10 10 9 8 8 7 6 6 6 5 4 3 4 4 5 5 6 7 8 9 9 10 11 12
8 7 2 4 1 7 2 3 2 9 2 6 1 2 5 5 2 3 5 11 10 10 9 8 7 5 6 5 5 5 3 4 4 4 3 3 6 6 8 9 10 10 10 11
2 6 4 6 5 9 3 7 8 9 10 9 9 6 3 4 5 3 6 6 9 9 8 7 6 6 6 6 5 4 4 4 4 3 2 4 5 6 9 9 10 10 11 11
4 5 3 4 6 10 3 1 4 6 7 7 9 9 10 7 4 6 9 8 9 8 6 7 7 6 7 5 5 5 3 2 1 1 4 4 5 3 8 9 10 9 9 12
4 2 7 3 5 9 5 5 4 7 8 3 8 9 12 7 5 5 11 7 7 6 8 8 8 7 6 6 5 4 4 3 1 1 3 4 4 6 8 8 8 9 10 11
9 10 5 4 3 10 8 5 9 6 3 6 5 8 9 6 6 6 10 10 9 9 9 9 8 7 6 6 5 4 2 2 1 3 3 3 4 6 6 7 8 8 9 11
3 8 8 11 8 2 8 3 5 4 7 6 7 7 9 8 8 8 8 9 10 10 9 7 8 7 6 6 5 4 3 1 1 2 4 4 5 6 7 8 9 8 8 8
5 4 3 4 2 5 7 4 3 6 7 6 5 8 8 8 8 8 7 8 8 9 10 7 8 7 7 6 5 4 3 1 1 3 5 5 4 5 6 6 7 6 7 8
5 7 6 2 2 2 7 9 7 8 4 2 2 6 10 9 6 9 7 6 8 10 9 10 9 8 7 6 5 4 3 3 2 3 5 5 4 5 7 7 7 7 9 11
6 7 5 6 9 8 6 9 8 9 9 10 10 6 7 8 10 7 7 7 9 11 9 8 8 6 6 6 5 4 3 4 2 2 4 4 5 4 5 6 10 15 17 21
Wind_Direction
91 128 208 204 201 157 139 184 206 243 230 118 243 257 322 31 66 82 74 67 57 45 5 27 24 21 29 35 37 34 43 27 41 52 66 58 61 52 47 38 33 37 40 36
73 227 222 135 173 189 199 182 246 287 260 168 265 253 73 40 44 79 95 75 61 60 44 34 25 30 35 38 38 41 43 39 40 44 57 75 81 59 60 44 41 34 33 32
181 219 144 160 167 185 211 201 208 223 336 284 328 284 172 59 83 74 57 69 56 50 51 34 34 31 37 38 35 45 45 50 50 51 61 63 63 53 44 34 38 31 37 37
234 242 174 170 203 185 219 201 173 180 111 233 61 279 199 134 110 83 100 95 88 64 52 45 41 49 44 33 38 49 53 46 43 45 67 71 75 77 39 54 43 40 36 35
229 174 181 198 218 155 232 136 159 146 153 71 278 54 257 140 180 173 170 152 138 109 93 71 52 52 42 35 33 50 64 59 48 55 63 73 75 71 44 34 51 39 33 36
237 236 163 200 163 167 144 80 48 49 80 292 227 175 252 191 184 158 179 178 169 146 123 103 82 71 69 54 54 58 72 62 58 68 70 78 82 71 65 44 46 34 12 24
238 221 204 144 98 86 105 105 223 352 348 226 135 149 243 171 165 172 174 181 178 165 155 144 129 114 92 83 75 77 78 72 71 74 75 81 87 84 78 60 49 40 22 9
171 256 166 186 188 172 183 164 158 205 203 239 324 233 257 43 277 180 168 169 167 171 172 161 149 131 115 103 95 89 88 93 85 86 86 86 85 81 78 72 62 46 32 0
169 272 222 136 140 139 183 188 168 105 55 57 224 277 231 113 88 143 159 163 180 177 172 168 157 141 137 135 133 124 116 108 93 91 89 83 91 91 99 110 140 160 261 298
216 175 221 144 104 39 160 162 97 15 170 248 272 267 237 203 188 176 174 184 188 180 171 168 167 160 158 147 131 111 107 114 120 134 119 94 78 63 42 22 12 4 347 349
163 133 278 128 205 174 154 181 67 124 151 171 237 251 215 195 183 184 187 190 185 183 177 175 174 170 168 162 169 165 136 71 34 16 8 15 7 8 2 0 350 347 333 333
183 139 178 202 160 336 239 195 163 155 214 235 156 257 10 239 178 180 186 188 189 174 174 172 172 169 181 175 145 80 36 9 336 331 359 357 355 356 355 348 339 337 329 325
182 147 174 324 45 359 224 200 173 96 74 198 147 254 25 107 144 180 180 183 179 173 172 172 168 186 180 168 159 171 10 328 350 4 13 12 12 8 354 337 325 321 313 306
84 171 192 192 163 95 198 195 183 161 196 180 231 248 220 169 175 185 182 172 179 181 176 176 179 177 178 193 188 104 67 58 50 49 50 41 8 345 341 333 330 328 326 320
170 201 190 171 175 123 238 248 190 201 227 217 247 208 200 194 190 187 171 162 164 178 179 180 171 182 194 180 117 105 92 69 57 52 56 30 360 4 6 356 346 337 331 328
180 198 151 168 107 224 230 247 222 229 224 261 172 257 198 107 101 150 188 173 177 178 173 173 175 170 163 148 133 116 103 73 68 59 39 7 8 8 357 345 338 331 327 326
161 134 130 194 118 154 253 234 207 188 174 175 208 227 150 182 191 189 191 175 177 169 165 169 169 171 157 145 131 127 102 71 60 49 23 14 15 355 340 332 325 323 320 318
145 127 66 118 310 234 255 28 62 215 213 196 144 202 181 193 151 145 167 172 163 166 170 172 166 146 135 128 116 123 94 78 71 42 26 22 352 333 327 325 321 316 314 313
7 126 120 157 214 321 246 190 167 167 248 185 202 164 177 100 65 320 193 165 167 170 178 184 159 147 139 136 134 115 78 60 36 9 8 351 334 320 321 315 314 315 311 309
36 21 161 139 190 214 238 263 142 96 289 211 178 157 149 139 154 236 185 180 181 172 158 157 141 131 137 136 115 99 111 113 233 359 335 324 312 298 308 305 307 307 303 301
119 75 221 180 230 285 192 177 169 107 249 144 152 161 159 188 195 190 165 181 174 164 157 139 142 151 142 130 127 150 164 214 165 351 296 290 308 300 290 295 302 304 301 302
156 166 198 115 191 263 160 69 159 203 48 145 149 168 185 191 156 152 166 178 166 168 157 157 148 151 146 147 151 158 197 145 194 243 264 281 276 287 297 290 293 289 291 291
247 186 179 186 208 298 207 127 199 170 147 189 169 184 187 178 184 181 184 180 183 174 162 152 154 152 159 156 146 173 182 192 232 330 284 279 284 288 287 286 290 293 291 291
248 166 184 104 232 213 203 228 222 201 207 195 194 179 172 186 196 192 193 185 175 169 171 153 155 172 178 175 169 171 183 182 128 283 290 289 280 294 282 277 285 287 289 291
201 128 155 275 274 103 259 229 218 221 224 195 199 195 202 196 198 197 206 185 179 172 162 166 174 181 187 172 185 185 194 164 238 256 286 287 282 280 292 285 290 285 283 283
180 157 160 211 204 176 205 213 200 205 210 210 207 217 226 192 211 194 215 186 171 175 161 168 173 169 174 175 190 204 197 172 181 294 290 279 287 292 291 296 303 302 307 309